Regional Weather Roundup
Issued by NWS

Home | Current Version | Previous Version | Text Only | Print | Product List | Glossary Off
Versions: 1 2 3 4 5 6 7 8 9 10 11 12 13 14 15 16 17 18 19 20 21 22 23 24 25 26 27 28 29 30 31 32 33 34 35 36 37 38 39 40 41 42 43 44 45 46 47 48 49 50

000
ASUS43 KLOT 280410
RWRIL

ILLINOIS REGIONAL WEATHER ROUNDUP
NATIONAL WEATHER SERVICE CHICAGO/ROMEOVILLE IL
1100 PM CDT SUN JUL 27 2014

NOTE: "FAIR" INDICATES FEW OR NO CLOUDS BELOW 12,000 FEET WITH NO
SIGNIFICANT WEATHER AND/OR OBSTRUCTIONS TO VISIBILITY.

* THESE STATIONS ARE NOT UNDER NWS QUALITY CONTROL. THEY ALSO MAY NOT
  REPORT WEATHER SUCH AS PRECIPITATION OR FOG.

ILZ001-002-007-009-015-016-024-280500-
NORTHWEST ILLINOIS

CITY           SKY/WX    TMP DP  RH WIND       PRES   REMARKS
MOLINE         PTCLDY    70  59  68 NW10      29.96R
STERLING*      PTCLDY    68  57  68 N7        29.95R
SAVANNA*       PTCLDY    69  58  68 NW10G16   29.96R
$$

ILZ003-004-008-010-011-017-018-280500-
NORTH CENTRAL ILLINOIS

CITY           SKY/WX    TMP DP  RH WIND       PRES   REMARKS
ROCKFORD       MOCLDY    68  60  75 N12       29.96R
FREEPORT*      PTCLDY    64  58  83 NW8       29.97R
ROCHELLE*      CLEAR     65  59  79 N9        29.94R
DE KALB*       PTCLDY    64  59  84 N9        29.93R
PERU*          PTCLDY    66  59  77 NW12      29.93R
$$

ILZ005-006-012>014-019>023-280500-
NORTHEAST ILLINOIS

CITY           SKY/WX    TMP DP  RH WIND       PRES   REMARKS
CHICAGO-OHARE  MOCLDY    65  57  75 N15G22    29.90R
CHICAGO-MIDWAY CLOUDY    68  62  81 N15G25    29.89R
AURORA         CLEAR     67  59  75 N13       29.91R
LANSING*       CLOUDY    65  60  83 N15G23    29.88R
JOLIET*        CLEAR     69  57  66 NW6       29.90R
WAUKEGAN       CLOUDY    63  57  81 N8G18     29.90S
DUPAGE AIRPORT MOCLDY    67  60  78 N15G22    29.90R
KANKAKEE*      MOCLDY    67  59  77 W5        29.88S
WHEELING       PTCLDY    65  59  81 N12       29.91S
MORRIS*        CLEAR     68  60  75 NW6       29.89R
ROMEOVILLE*    PTCLDY    68  59  73 N10       29.89R
NORTHERLY ISL    N/A     65  60  84 MISG        N/A
$$

LMZ740>746-280500-
SOUTHERN LAKE MICHIGAN

STATION/POSITION SKY/WX   TEMP    WIND        PRES    VSBY  WAVE
                          AIR SEA DIR/SP/G                  HT/PER
                          (F)     (DEG/KT/KT) (MB)    (MI)  (FT/S)
SOUTHERN BUOY              62 61  340/ 27/ 31 1010.4R         6/ 6
WAUKEGAN HARBOR            64     360/ 15/ 18   N/A
HARRISON CRIB              64     350/ 27/ 31   N/A
BURNHAM HARBOR             65     350/ 18/ 18   N/A
CALUMET HARBOR             65     340/ 15/ 21 1011.1R
BURNS HARBOR               66     360/ 21/ 27 1011.9R
MICHIGAN CITY              64     330/ 27/ 33   N/A
MICHIGAN CITY 6N           65 69  350/ 21/ 29   N/A           8/ 5
ST. JOSEPH                 63 64  340/ 21/ 27   N/A           6/ 5
$$

ILZ025>027-034>036-040-047-049-050-058-095>099-280500-
WEST-CENTRAL ILLINOIS

CITY           SKY/WX    TMP DP  RH WIND       PRES   REMARKS
QUINCY         CLEAR     65  58  78 NW7       30.02S
GALESBURG*     CLEAR     64  60  88 W6        29.98S
MACOMB*        CLEAR     63  60  88 W9        30.01S
JACKSONVILLE*  CLEAR     67  61  79 W8        30.00S
PITTSFIELD*    CLEAR     68  58  70 NW6       30.02S
$$

ILZ028>032-037-038-041>044-048-051>054-059>061-280500-
CENTRAL ILLINOIS

CITY           SKY/WX    TMP DP  RH WIND       PRES   REMARKS
PONTIAC        CLEAR     66  61  82 W7        29.90F
DECATUR        CLEAR     70  59  68 NW17G24   29.94S
PEORIA         CLEAR     69  58  67 NW8       29.95S
LACON*         PTCLDY    67  59  74 NW10      29.93S
LINCOLN*       CLEAR     69  59  71 W6        29.93R
SPRINGFIELD    CLEAR     67  60  78 NW8       29.97S
TAYLORVILLE    CLEAR     64  59  82 W8        29.97S
$$

ILZ033-039-045-046-055>057-062-063-280500-
EAST-CENTRAL ILLINOIS

CITY           SKY/WX    TMP DP  RH WIND       PRES   REMARKS
CHAMPAIGN      CLEAR     65  60  84 W12       29.92S
DANVILLE*      PTCLDY    65  59  79 W9        29.86F
RANTOUL*       CLEAR     66  58  76 W9        29.91S
MATTOON        CLEAR     65  59  81 W12       29.92S
PARIS*         CLEAR     64  60  88 W6        29.91S
$$

ILZ079-100>102-280500-
SOUTHWEST ILLINOIS

CITY           SKY/WX    TMP DP  RH WIND       PRES   REMARKS
ALTON          CLEAR     71  58  62 NW8       29.98S
BELLEVILLE     CLEAR     74  58  57 W10       29.96S
CAHOKIA*       CLEAR     76  58  53 N14G25    29.98R
SPARTA*        CLEAR     72  59  64 NW8       29.98S
$$

ILZ064>066-069>071-074>076-080>082-084>086-088>090-092>094-280500-
SOUTH-CENTRAL ILLINOIS

CITY           SKY/WX    TMP DP  RH WIND       PRES   REMARKS
CARBONDALE     CLEAR     76  58  53 N14G20    29.95R
CAIRO*         CLEAR     75  63  65 N7        29.93R
EFFINGHAM*     CLEAR     70  55  59 NW10G17   29.93F
MARION         CLEAR     77  61  57 N10       29.96R
MT. VERNON     CLEAR     73  55  53 N3        29.95S
CENTRALIA*     CLEAR     71  56  58 NW10G16   29.96S
SALEM*         CLEAR    N/A N/A N/A NW8       29.96S
METROPOLIS*    CLEAR     77  56  49 N3        29.92R
$$

ILZ067-068-072-073-078-083-087-091-280500-
SOUTHEAST ILLINOIS

CITY           SKY/WX    TMP DP  RH WIND       PRES   REMARKS
LAWRENCEVILLE  CLEAR     71  59  65 NW13      29.91S
FLORA*         CLEAR     69  57  65 NW8       29.94S
FAIRFIELD*     CLEAR     73  63  68 NW3       29.93S
HARRISBURG*    CLEAR     75  59  58 N9G17     29.94R
ROBINSON*      CLEAR     70  60  71 NW10      29.91S
CARMI*         CLEAR     73  61  64 NW9       29.92R
$$

ABBREVIATIONS USED IN REMARKS
   TC - TEMPERATURE IN CELSIUS
  WCI - WIND CHILL INDEX
   HX - HEAT INDEX
  VSB - VISIBILITY
$$



USA.gov is the U.S. government's official web portal to all federal, state and local government web resources and services.